This demonstration page uses our WeatherBlox Daily Observations layout. Learn more.

Left ArrowRight Arrow

39.92423, -83.80882

Hourly Observations for May 9, 2021

Temp ( °F °C ) Dew Point ( °F °C ) Humidity (%) Winds ( mph kmh ) Pressure ( in mb ) Visibility ( mi km ) Precip ( " mm )
12:56 am 00:56 Cloudy with Light Rain 46 7.8 46 7.8 100 100 NW 3 6 30.11 1020 10 16.0934 0.01 0.254
1:56 am 01:56 Cloudy with Light Rain 45 7.2 45 7.2 100 100 NNE 6 9 30.09 1019 10 16.0934 0.02 0.508
2:56 am 02:56 Cloudy with Light Rain 45 7 N/A N/A NE 10 17 30.05 1018 10 16.0934 0.03 0.762
3:56 am 03:56 Cloudy with Light Rain 45 7 N/A N/A ESE 12 19 30.02 1017 10 16.0934 0.06 1.524
4:56 am 04:56 Cloudy with Light Rain 45 7 N/A N/A ESE 14 22 29.97 1015 10 16.0934 0.07 1.778
5:56 am 05:56 Cloudy with Light Rain 44 6.7 44 6.7 100 100 E 18 30 29.93 1014 10 16.0934 0.001 0.001
6:56 am 06:56 Cloudy with Light Rain 43 6 N/A N/A E 16 26 29.92 1013 10 16.0934 0.02 0.508
7:19 am 07:19 Cloudy 43 6 N/A N/A E 17 28 29.93 1013 10 16.0934 0.01 0.254
7:30 am 07:30 Cloudy with Light Rain 43 6 N/A N/A E 17 28 29.92 1013 10 16.0934 0.01 0.254
7:56 am 07:56 Cloudy with Light Rain 43 6 N/A N/A E 18 30 29.88 1012 10 16.0934 0.01 0.254
8:45 am 08:45 Cloudy with Rain 43 6 N/A N/A E 21 33 29.87 1011 9 14.48406 0.01 0.254
8:56 am 08:56 Cloudy with Light Rain 43 6 N/A N/A E 18 30 29.85 1011 10 16.0934 0.03 0.762
9:56 am 09:56 Cloudy 43 6 N/A N/A E 20 31 29.79 1009 10 16.0934 0.001 0.001
10:51 am 10:51 Cloudy with Rain 43 6 N/A N/A E 15 24 29.82 1010 6 9.65604 0.04 1.016
10:56 am 10:56 Cloudy with Rain 43 6 N/A N/A E 16 26 29.79 1009 5 8.0467 0.04 1.016
11:20 am 11:20 Cloudy with Rain 43 6 N/A N/A E 15 24 29.77 1008 7 11.26538 0.04 1.016
12:56 pm 12:56 Cloudy with Light Rain 45 7 N/A N/A E 22 35 29.64 1004 10 16.0934 0.09 2.286
3:56 pm 15:56 Cloudy with Light Rain 45 7 N/A N/A NNE 21 33 29.66 1004 8 12.87472 0.07 1.778
4:06 pm 16:06 Cloudy with Light Rain 45 7 N/A N/A N 15 24 29.67 1005 10 16.0934 0.01 0.254
7:56 pm 19:56 Cloudy 42 5.6 42 5.6 100 100 N 12 19 29.9 1012 10 16.0934 0.03 0.762
9:56 pm 21:56 Cloudy 41 5 40 4.4 96 96 N 10 17 29.99 1016 10 16.0934 N/A
10:32 pm 22:32 Cloudy 41 5 41 5 100 100 N 10 17 30.01 1016 10 16.0934 N/A
11:49 pm 23:49 Partly Cloudy 39 4 39 4 100 100 N 9 15 30.02 1016 10 16.0934 N/A
11:56 pm 23:56 Mostly Clear 40 4.4 40 4.4 100 100 N 8 13 30 1016 10 16.0934 N/A

Powered by AerisWeather